(°C)
13°
13°
13°
13°
15°
17°
19°
(°C)
12°
12°
11°
12°
13°
16°
19°
WSW
SW
SW
WSW
WSW
WSW
WSW
(km/h)
4-6
5-8
5-9
5-10
6-10
5-7
3-5
(mm)
0
0
0
0
0
0
0
(%)
0
0
0
0
0
0
0

Wysokość słońca

/ -18.9°
sun-icon
UV 9
05:15
21:13
Sierp przybywający (58°)
09:43
00:33

METAR dla Innsbruck (LOWI)

Czas Warunki Temperatura/
Punkt rosy
Wiatr Widzialność Pogoda Chmury Ciśn. atm. Zmień Surowy
VFR 15°C / 11°C 270º 3kt >10km - Clear 1021 - LOWI 142320Z AUTO 27003KT 9999 NCD 15/11 Q1021
VFR 15°C / 10°C variable 2kt >10km - Clear 1021 - LOWI 142250Z AUTO VRB02KT 9999 NCD 15/10 Q1021
VFR 16°C / 10°C 150º 3kt >10km - Clear 1021 - LOWI 142220Z AUTO 15003KT 9999 NCD 16/10 Q1021
VFR 17°C / 10°C variable 2kt >10km - Clear 1020 - LOWI 142150Z AUTO VRB02KT 9999 NCD 17/10 Q1020
VFR 18°C / 11°C variable 1kt >10km - Clear 1020 - LOWI 142120Z AUTO VRB01KT 9999 NCD 18/11 Q1020
VFR 18°C / 11°C variable 1kt >10km - Clear 1020 - LOWI 142050Z AUTO VRB01KT 9999 NCD 18/11 Q1020
VFR 19°C / 11°C variable 2kt >10km - Clear 1020 - LOWI 142020Z AUTO VRB02KT 9999 NCD 19/11 Q1020
VFR 20°C / 11°C 10º variable 330º to 050º 3kt >10km - Clear 1020 - LOWI 141950Z AUTO 01003KT 330V050 9999 NCD 20/11 Q1020
VFR 21°C / 12°C variable 2kt >10km - Clear 1019 - LOWI 141920Z AUTO VRB02KT 9999 NCD 21/12 Q1019
VFR 22°C / 11°C 90º variable 050º to 160º 3kt >10km - Clouds and Visibility OK 1018 No Significant change LOWI 141850Z 09003KT 050V160 CAVOK 22/11 Q1018 NOSIG
VFR 22°C / 11°C 60º 6kt >10km - Clouds and Visibility OK 1018 No Significant change LOWI 141820Z 06006KT CAVOK 22/11 Q1018 NOSIG
VFR 25°C / 11°C 80º variable 040º to 110º 8kt >10km - Clouds and Visibility OK 1018 No Significant change LOWI 141750Z 08008KT 040V110 CAVOK 25/11 Q1018 NOSIG
VFR 26°C / 10°C 80º variable 050º to 110º 9kt >10km - Clouds and Visibility OK 1017 No Significant change LOWI 141720Z 08009KT 050V110 CAVOK 26/10 Q1017 NOSIG
VFR 27°C / 10°C 100º variable 070º to 130º 9kt >10km - Clouds and Visibility OK 1017 No Significant change LOWI 141650Z 10009KT 070V130 CAVOK 27/10 Q1017 NOSIG
VFR 27°C / 10°C 80º variable 050º to 110º 9kt >10km - Clouds and Visibility OK 1017 No Significant change LOWI 141620Z 08009KT 050V110 CAVOK 27/10 Q1017 NOSIG
VFR 28°C / 9°C 100º variable 060º to 130º 10kt >10km - Clouds and Visibility OK 1017 No Significant change LOWI 141550Z 10010KT 060V130 CAVOK 28/09 Q1017 NOSIG
VFR 28°C / 10°C 80º variable 050º to 120º 7kt >10km - Clouds and Visibility OK 1017 No Significant change LOWI 141520Z 08007KT 050V120 CAVOK 28/10 Q1017 NOSIG
VFR 28°C / 10°C 60º variable 030º to 090º 8kt >10km - Clouds and Visibility OK 1017 No Significant change LOWI 141450Z 06008KT 030V090 CAVOK 28/10 Q1017 NOSIG
VFR 27°C / 11°C 60º variable 020º to 090º 8kt >10km - Clouds and Visibility OK 1018 No Significant change LOWI 141420Z 06008KT 020V090 CAVOK 27/11 Q1018 NOSIG
VFR 28°C / 7°C 90º variable 030º to 120º 8kt >10km - Clouds and Visibility OK 1018 No Significant change LOWI 141350Z 09008KT 030V120 CAVOK 28/07 Q1018 NOSIG
VFR 27°C / 8°C 60º variable 020º to 090º 7kt >10km - Clouds and Visibility OK 1018 No Significant change LOWI 141320Z 06007KT 020V090 CAVOK 27/08 Q1018 NOSIG
VFR 27°C / 8°C 100º variable 050º to 160º 6kt >10km - Clouds and Visibility OK 1019 No Significant change LOWI 141250Z 10006KT 050V160 CAVOK 27/08 Q1019 NOSIG
VFR 26°C / 9°C 90º variable 040º to 140º 5kt >10km - Clouds and Visibility OK 1019 No Significant change LOWI 141220Z 09005KT 040V140 CAVOK 26/09 Q1019 NOSIG
VFR 25°C / 10°C 100º variable 040º to 140º 6kt >10km - Clouds and Visibility OK 1020 No Significant change LOWI 141150Z 10006KT 040V140 CAVOK 25/10 Q1020 NOSIG

VFR

15°C / 11°C

[Więcej]
Wiatr 270º 3kt
Widzialność >10km
Pogoda -
Chmury Clear
Ciśn. atm. 1021
Zmień -
Surowy LOWI 142320Z AUTO 27003KT 9999 NCD 15/11 Q1021

VFR

15°C / 10°C

[Więcej]
Wiatr variable 2kt
Widzialność >10km
Pogoda -
Chmury Clear
Ciśn. atm. 1021
Zmień -
Surowy LOWI 142250Z AUTO VRB02KT 9999 NCD 15/10 Q1021

VFR

16°C / 10°C

[Więcej]
Wiatr 150º 3kt
Widzialność >10km
Pogoda -
Chmury Clear
Ciśn. atm. 1021
Zmień -
Surowy LOWI 142220Z AUTO 15003KT 9999 NCD 16/10 Q1021

VFR

17°C / 10°C

[Więcej]
Wiatr variable 2kt
Widzialność >10km
Pogoda -
Chmury Clear
Ciśn. atm. 1020
Zmień -
Surowy LOWI 142150Z AUTO VRB02KT 9999 NCD 17/10 Q1020

VFR

18°C / 11°C

[Więcej]
Wiatr variable 1kt
Widzialność >10km
Pogoda -
Chmury Clear
Ciśn. atm. 1020
Zmień -
Surowy LOWI 142120Z AUTO VRB01KT 9999 NCD 18/11 Q1020

VFR

18°C / 11°C

[Więcej]
Wiatr variable 1kt
Widzialność >10km
Pogoda -
Chmury Clear
Ciśn. atm. 1020
Zmień -
Surowy LOWI 142050Z AUTO VRB01KT 9999 NCD 18/11 Q1020

VFR

19°C / 11°C

[Więcej]
Wiatr variable 2kt
Widzialność >10km
Pogoda -
Chmury Clear
Ciśn. atm. 1020
Zmień -
Surowy LOWI 142020Z AUTO VRB02KT 9999 NCD 19/11 Q1020

VFR

20°C / 11°C

[Więcej]
Wiatr 10º variable 330º to 050º 3kt
Widzialność >10km
Pogoda -
Chmury Clear
Ciśn. atm. 1020
Zmień -
Surowy LOWI 141950Z AUTO 01003KT 330V050 9999 NCD 20/11 Q1020

VFR

21°C / 12°C

[Więcej]
Wiatr variable 2kt
Widzialność >10km
Pogoda -
Chmury Clear
Ciśn. atm. 1019
Zmień -
Surowy LOWI 141920Z AUTO VRB02KT 9999 NCD 21/12 Q1019

VFR

22°C / 11°C

[Więcej]
Wiatr 90º variable 050º to 160º 3kt
Widzialność >10km
Pogoda -
Chmury Clouds and Visibility OK
Ciśn. atm. 1018
Zmień No Significant change
Surowy LOWI 141850Z 09003KT 050V160 CAVOK 22/11 Q1018 NOSIG

VFR

22°C / 11°C

[Więcej]
Wiatr 60º 6kt
Widzialność >10km
Pogoda -
Chmury Clouds and Visibility OK
Ciśn. atm. 1018
Zmień No Significant change
Surowy LOWI 141820Z 06006KT CAVOK 22/11 Q1018 NOSIG

VFR

25°C / 11°C

[Więcej]
Wiatr 80º variable 040º to 110º 8kt
Widzialność >10km
Pogoda -
Chmury Clouds and Visibility OK
Ciśn. atm. 1018
Zmień No Significant change
Surowy LOWI 141750Z 08008KT 040V110 CAVOK 25/11 Q1018 NOSIG

VFR

26°C / 10°C

[Więcej]
Wiatr 80º variable 050º to 110º 9kt
Widzialność >10km
Pogoda -
Chmury Clouds and Visibility OK
Ciśn. atm. 1017
Zmień No Significant change
Surowy LOWI 141720Z 08009KT 050V110 CAVOK 26/10 Q1017 NOSIG

VFR

27°C / 10°C

[Więcej]
Wiatr 100º variable 070º to 130º 9kt
Widzialność >10km
Pogoda -
Chmury Clouds and Visibility OK
Ciśn. atm. 1017
Zmień No Significant change
Surowy LOWI 141650Z 10009KT 070V130 CAVOK 27/10 Q1017 NOSIG

VFR

27°C / 10°C

[Więcej]
Wiatr 80º variable 050º to 110º 9kt
Widzialność >10km
Pogoda -
Chmury Clouds and Visibility OK
Ciśn. atm. 1017
Zmień No Significant change
Surowy LOWI 141620Z 08009KT 050V110 CAVOK 27/10 Q1017 NOSIG

VFR

28°C / 9°C

[Więcej]
Wiatr 100º variable 060º to 130º 10kt
Widzialność >10km
Pogoda -
Chmury Clouds and Visibility OK
Ciśn. atm. 1017
Zmień No Significant change
Surowy LOWI 141550Z 10010KT 060V130 CAVOK 28/09 Q1017 NOSIG

VFR

28°C / 10°C

[Więcej]
Wiatr 80º variable 050º to 120º 7kt
Widzialność >10km
Pogoda -
Chmury Clouds and Visibility OK
Ciśn. atm. 1017
Zmień No Significant change
Surowy LOWI 141520Z 08007KT 050V120 CAVOK 28/10 Q1017 NOSIG

VFR

28°C / 10°C

[Więcej]
Wiatr 60º variable 030º to 090º 8kt
Widzialność >10km
Pogoda -
Chmury Clouds and Visibility OK
Ciśn. atm. 1017
Zmień No Significant change
Surowy LOWI 141450Z 06008KT 030V090 CAVOK 28/10 Q1017 NOSIG

VFR

27°C / 11°C

[Więcej]
Wiatr 60º variable 020º to 090º 8kt
Widzialność >10km
Pogoda -
Chmury Clouds and Visibility OK
Ciśn. atm. 1018
Zmień No Significant change
Surowy LOWI 141420Z 06008KT 020V090 CAVOK 27/11 Q1018 NOSIG

VFR

28°C / 7°C

[Więcej]
Wiatr 90º variable 030º to 120º 8kt
Widzialność >10km
Pogoda -
Chmury Clouds and Visibility OK
Ciśn. atm. 1018
Zmień No Significant change
Surowy LOWI 141350Z 09008KT 030V120 CAVOK 28/07 Q1018 NOSIG

VFR

27°C / 8°C

[Więcej]
Wiatr 60º variable 020º to 090º 7kt
Widzialność >10km
Pogoda -
Chmury Clouds and Visibility OK
Ciśn. atm. 1018
Zmień No Significant change
Surowy LOWI 141320Z 06007KT 020V090 CAVOK 27/08 Q1018 NOSIG

VFR

27°C / 8°C

[Więcej]
Wiatr 100º variable 050º to 160º 6kt
Widzialność >10km
Pogoda -
Chmury Clouds and Visibility OK
Ciśn. atm. 1019
Zmień No Significant change
Surowy LOWI 141250Z 10006KT 050V160 CAVOK 27/08 Q1019 NOSIG

VFR

26°C / 9°C

[Więcej]
Wiatr 90º variable 040º to 140º 5kt
Widzialność >10km
Pogoda -
Chmury Clouds and Visibility OK
Ciśn. atm. 1019
Zmień No Significant change
Surowy LOWI 141220Z 09005KT 040V140 CAVOK 26/09 Q1019 NOSIG

VFR

25°C / 10°C

[Więcej]
Wiatr 100º variable 040º to 140º 6kt
Widzialność >10km
Pogoda -
Chmury Clouds and Visibility OK
Ciśn. atm. 1020
Zmień No Significant change
Surowy LOWI 141150Z 10006KT 040V140 CAVOK 25/10 Q1020 NOSIG

TAF dla Innsbruck (LOWI)

From till


Maximum Temperature 30ºC on . Minimum Temperature 14ºC on .
From till Wind 270º 3kt. Visibility 10km or more. Nil Significant Cloud.
Becoming from till Wind 90º 10kt. Visibility 10km or more. Nil Significant Cloud.
Becoming from till Wind 270º 5kt. Visibility 10km or more. Nil Significant Cloud.

Surowy: TAF LOWI 142315Z 1500/1524 27003KT CAVOK TX30/1515Z TN14/1504Z BECMG 1510/1512 09010KT BECMG 1517/1519 27005KT

Aktualne zdjęcia satelitarne i zdjęcia opadów deszczu dla Innsbruck, Austria

Wskaźnik lokalizacji znajduje się na Innsbruck. [Więcej]

Obraz satelitarny w czasie rzeczywistym łączy światło widzialne w ciągu dnia z promieniowaniem podczerwonym w nocy. W nocy obraz nie jest ciemny, ponieważ promieniowanie podczerwone może wykrywać różnice temperatur. Niestety niskie chmury i mgłę trudno odróżnić od temperatury gruntu, przez co mogą być prawie niewidoczne w nocy. Zdjęcia satelitarne Meteosat dla Europy są aktualizowane w czasie rzeczywistym co 5 minut. Obrazy GOES-16/GOES-17 (Ameryka Północna i Południowa) oraz Himawari (Azja) są aktualizowane co 10 minut.

Opady zostały oszacowane na podstawie danych radarowych i satelitarnych. Szacunkowe dane opadów nocnych są mniej dokładne niż dane w ciągu dnia. Pomarańczowe krzyżyki oznaczają miejsca, gdzie zaobserwowano pioruny (nad Europa).

Prawa autorskie 2021 EUMETSAT / meteoblue. Dane dot. błyskawic dostarczone przez nowcast.

Radar dla Innsbruck

Wskaźnik lokalizacji jest umieszczony na Innsbruck. Animacja przedstawia radar opadów dla ostatniej godziny, jak również 2h prognozę pogody. Mżawka i lekkie opady mogą być niewidoczne na radarze. Intensywność opadów jest oznaczona kolorami od jasnoniebieskiego do ciemnofioletowego.
Copyright 2021 Deutscher Wetterdienst / meteoblue.

Obecny stan pogody i ostrzeżenia

EUMETNET – MeteoAlarm

pictomap

Źródło: ZAMG

Możliwe są opóźnienia pomiędzy tą stroną a stroną www.meteoalarm.eu. W celu uzyskania bardziej aktualnych informacji na temat alertów pogodowych publikowanych przez państwowe służby meteorologiczne, prosimy wejść na stronę www.meteoalarm.eu.